GFSSW_925_thetae_171.txt.gz
Theta_e
314 317 318 318 319 319 319 319 319 319 318 317 316 316 315 315 315 314 316 317 318 319 317 314 317 317 316 315 312 310 316 316 316 316 316 319 318 317 315 317 320 344 344 344 345
312 314 316 317 318 318 319 319 319 318 318 317 316 315 315 314 315 314 316 318 320 319 317 316 317 316 318 317 315 315 315 314 313 314 318 320 317 317 317 317 319 334 340 345 345
313 312 314 316 317 317 318 318 318 318 317 316 315 315 314 314 313 315 316 318 317 318 318 317 316 316 318 316 318 314 318 313 315 318 318 318 319 315 319 319 319 320 319 343 343
317 313 312 314 316 316 316 317 317 317 317 316 314 314 314 316 312 316 317 317 317 320 318 317 318 318 317 318 320 319 317 317 319 318 318 319 319 318 317 320 318 316 317 335 343
319 316 313 312 314 315 316 316 316 316 316 314 315 315 315 316 315 315 317 316 319 319 320 318 322 321 320 323 321 320 319 320 319 319 318 317 318 318 318 318 316 315 315 321 337
318 319 317 313 313 315 316 316 316 316 315 314 316 315 317 316 313 314 315 319 320 320 320 321 322 322 323 324 322 321 322 321 319 319 317 317 318 316 318 316 321 317 316 320 335
318 318 319 318 314 314 316 316 316 315 314 315 318 317 318 314 314 315 316 317 316 315 319 320 321 322 322 322 321 322 321 318 316 317 318 317 319 318 318 319 321 319 318 316 327
321 318 317 320 317 315 315 316 316 315 314 318 318 318 318 314 314 314 314 314 314 315 315 320 321 322 323 322 320 321 318 316 314 318 319 320 321 322 321 319 321 319 318 318 318
322 321 318 317 320 318 316 316 315 314 316 317 317 317 317 314 314 315 317 318 320 319 316 321 321 322 322 321 317 320 315 318 319 319 321 322 324 323 322 320 321 319 318 319 320
323 322 321 318 319 319 317 316 315 315 318 318 316 314 313 311 315 320 320 321 321 320 321 321 321 324 323 319 320 319 321 321 323 321 322 323 324 322 321 320 319 319 319 319 320
324 323 322 320 318 319 316 315 316 316 317 315 315 311 312 316 318 320 321 320 320 321 322 322 324 323 322 323 317 321 322 324 323 322 322 324 322 322 321 319 320 319 320 321 322
321 324 323 321 319 318 316 314 313 312 317 315 316 315 315 315 319 318 321 322 322 325 321 324 323 321 321 323 323 323 324 325 323 320 321 323 323 323 319 319 317 319 322 323 324
317 321 322 322 319 317 315 314 314 315 311 313 315 315 316 315 318 319 321 319 321 322 322 324 323 320 322 323 325 325 325 325 326 321 320 321 323 321 319 317 317 321 321 323 323
315 318 322 320 317 317 315 315 315 310 314 314 318 317 315 316 316 316 317 318 318 323 321 323 320 323 324 324 324 326 323 325 323 323 326 320 327 323 320 318 318 322 323 324 323
315 316 321 319 317 316 315 315 316 311 321 316 318 315 316 313 316 316 316 318 320 321 321 324 321 323 325 325 323 326 320 322 322 323 323 323 325 324 319 320 318 320 321 322 322
314 314 318 318 317 316 315 314 311 314 320 321 320 320 319 317 321 318 316 317 316 319 318 321 317 319 322 318 322 319 319 317 317 321 326 324 325 324 321 320 317 318 319 320 322
314 314 315 318 317 316 314 310 312 318 319 322 324 321 321 320 322 321 319 318 321 324 324 321 320 321 318 320 318 320 321 326 326 326 328 319 322 324 319 318 316 317 318 319 321
314 314 317 317 317 315 314 312 318 317 320 319 322 322 324 322 323 322 322 320 318 320 322 325 326 321 320 322 321 320 322 328 331 327 324 319 324 322 318 317 316 315 316 317 319
314 315 314 317 315 314 313 315 317 317 318 320 323 323 324 324 324 321 324 323 321 320 325 325 324 319 319 320 320 319 320 320 322 318 325 322 320 319 314 315 314 315 315 316 317
312 314 315 316 315 314 314 316 316 316 318 321 324 322 324 325 324 323 324 322 323 321 318 322 325 317 319 319 320 319 318 323 323 329 329 324 322 324 317 317 313 313 314 314 312
310 315 314 316 316 317 317 313 317 317 318 321 321 322 323 325 324 324 322 320 322 322 319 318 318 316 318 322 324 320 320 320 322 324 328 325 324 319 319 316 314 311 310 312 312
310 314 314 315 319 314 315 319 317 318 318 320 319 319 322 323 324 324 322 321 320 321 323 318 319 320 317 313 315 322 322 322 328 324 322 322 325 313 317 314 311 310 308 307 309
308 311 310 315 318 315 318 318 319 319 319 321 321 320 317 323 326 324 322 317 318 322 324 321 324 324 322 317 313 318 319 321 322 320 324 328 325 309 313 311 311 311 308 308 308
307 308 304 310 315 316 318 319 320 318 319 320 319 319 319 320 317 324 322 312 312 320 319 321 320 326 327 322 319 317 316 319 322 325 325 323 322 312 312 312 311 309 309 307 307
305 305 308 311 314 315 316 319 319 320 318 318 319 320 320 320 318 318 317 310 309 315 318 320 324 318 315 311 311 314 317 316 321 323 325 323 320 313 313 312 310 309 307 305 306
300 302 306 311 313 316 314 315 319 319 319 320 320 320 319 321 320 319 313 313 314 309 312 310 318 310 315 309 309 312 310 314 318 320 320 317 320 313 312 311 310 307 305 305 305
303 303 307 309 312 315 314 316 316 317 316 319 319 319 319 319 317 311 312 312 312 311 312 314 313 313 321 309 308 313 312 311 315 314 318 319 319 310 311 311 309 307 304 305 306

GFSSW_925_thetae_174.txt.gz
Theta_e
313 316 318 319 319 320 320 320 319 319 318 318 317 316 316 316 316 317 318 318 319 318 317 317 318 319 319 320 318 317 320 320 321 321 321 322 322 322 321 321 322 330 334 339 344
311 313 316 318 319 319 319 319 319 319 318 317 316 316 315 315 319 316 317 319 318 317 317 317 318 319 319 321 321 320 321 320 319 319 321 322 322 322 321 322 321 322 328 338 340
314 311 313 316 317 318 319 319 318 318 317 317 316 315 315 315 319 318 316 318 317 318 318 318 318 318 320 320 322 321 320 319 318 321 322 322 322 321 321 320 321 322 322 323 334
318 313 311 314 316 317 318 318 318 317 317 316 315 315 314 319 318 318 316 317 317 318 319 319 319 317 317 319 323 321 321 320 321 322 322 322 320 320 320 320 322 323 323 323 325
318 317 313 312 314 316 316 317 317 317 316 315 314 314 318 319 318 315 317 317 319 320 320 320 320 320 318 321 321 320 321 321 322 322 322 321 320 319 320 321 323 323 323 324 323
317 318 317 312 312 314 316 316 316 316 316 314 314 314 318 320 315 314 314 318 321 320 322 321 322 322 322 322 321 323 323 322 321 320 320 319 319 321 322 323 325 324 324 324 324
320 317 319 316 313 313 315 316 316 316 315 314 315 317 318 318 317 317 316 319 318 318 320 323 323 321 322 322 323 323 322 321 319 319 320 321 321 322 323 325 325 325 325 325 323
322 319 317 319 315 313 314 316 316 316 314 315 316 318 318 316 318 317 317 317 317 317 316 322 323 322 322 323 322 321 321 323 319 321 322 321 324 323 325 325 326 325 325 325 325
323 321 318 318 319 315 315 316 316 315 315 317 317 318 319 314 315 315 316 315 317 317 317 319 323 322 323 322 322 323 324 323 322 322 323 324 326 326 325 325 326 325 325 325 325
323 322 320 318 319 317 316 317 316 315 318 317 317 318 317 314 316 320 320 319 322 320 321 322 323 324 324 324 327 327 325 325 325 325 324 325 326 325 325 325 325 325 325 325 326
320 323 321 319 319 318 317 316 318 318 318 319 319 315 313 315 318 322 322 322 322 322 323 323 324 327 325 326 324 322 324 325 325 324 324 326 327 326 325 325 325 324 325 326 328
318 320 322 321 319 319 317 318 318 317 320 317 316 316 315 317 319 322 323 324 324 325 325 325 327 326 324 324 323 323 325 326 325 324 325 327 327 326 325 324 323 325 326 327 328
316 318 320 322 319 318 317 318 316 315 313 315 317 317 316 315 319 321 323 323 325 326 326 327 326 324 323 325 325 326 327 327 327 326 326 326 327 327 324 322 324 326 327 329 330
314 316 318 320 317 317 317 317 315 313 315 314 316 316 315 315 315 320 323 322 323 326 326 326 325 325 326 327 326 329 326 325 326 328 330 325 328 326 325 324 324 325 327 329 331
315 315 317 317 318 317 316 315 315 312 322 316 315 315 315 315 315 316 321 321 324 324 324 326 326 325 327 327 326 327 325 327 328 329 329 328 329 326 325 325 324 324 326 328 329
312 315 315 316 317 317 315 315 309 314 320 321 319 319 317 315 316 317 320 321 321 323 323 324 322 325 326 325 325 325 324 325 325 327 332 328 328 327 326 325 323 321 323 325 327
308 314 315 315 317 316 314 310 312 319 318 323 323 321 320 318 317 321 320 324 324 326 326 323 323 322 322 325 325 324 326 332 331 331 331 325 327 327 324 323 322 320 321 322 324
307 312 316 316 316 314 312 312 318 317 320 322 323 322 323 321 320 323 321 323 322 323 326 328 330 324 322 324 325 327 327 330 331 331 329 323 328 326 323 322 320 318 319 319 321
308 313 315 315 315 313 312 316 320 319 318 324 324 325 325 323 323 324 325 322 322 322 326 327 327 322 322 322 324 326 330 326 328 325 329 326 325 323 322 321 319 318 318 318 319
309 310 314 314 314 312 316 317 318 318 317 323 327 325 326 326 327 326 326 325 323 321 322 325 329 323 322 323 323 323 323 328 329 334 332 327 327 326 323 322 319 318 318 318 318
306 309 314 315 315 316 318 313 318 317 318 323 324 326 326 328 327 327 328 325 324 322 321 324 327 320 323 325 326 324 326 325 326 328 331 330 328 326 325 323 320 318 317 317 317
304 309 314 315 318 315 312 312 316 318 318 321 322 323 325 326 327 327 328 325 323 324 324 324 326 326 325 322 323 325 325 325 330 330 330 330 331 321 324 324 322 318 317 317 316
304 309 311 315 317 314 310 314 317 318 320 321 322 322 323 325 328 326 325 323 323 325 326 325 327 328 324 320 318 325 325 325 326 326 331 334 329 320 320 321 321 319 316 315 315
305 306 309 311 316 314 313 317 320 318 320 321 321 321 322 325 323 326 326 319 322 324 323 323 327 328 329 325 323 322 323 325 326 331 330 331 327 323 320 321 319 317 315 313 313
304 305 307 311 312 318 314 317 320 321 320 321 322 322 322 324 326 324 325 316 318 321 324 324 329 328 326 322 321 323 322 322 325 326 330 328 326 324 323 321 319 316 315 313 313
300 304 308 312 312 316 317 318 320 320 320 322 322 323 322 323 324 324 323 319 320 315 324 324 329 325 328 326 321 322 321 321 322 323 324 324 324 322 321 319 319 317 315 314 313
300 302 306 310 314 313 317 317 318 320 320 320 321 322 323 322 321 320 318 319 320 319 323 323 326 322 327 322 317 321 322 321 320 320 322 326 325 322 321 319 319 317 315 314 313

GFSSW_925_thetae_177.txt.gz
Theta_e
312 316 318 320 320 320 320 320 320 320 319 318 317 317 316 317 318 321 320 319 320 315 318 320 319 320 320 323 321 321 322 323 323 323 325 324 324 325 323 323 324 326 332 334 333
313 313 316 318 319 320 320 320 320 319 319 318 317 316 316 316 320 322 319 318 317 316 320 319 320 320 322 323 322 322 323 323 323 323 323 323 323 323 323 323 323 324 325 331 333
318 313 313 316 318 319 319 319 319 319 318 317 317 316 316 316 323 322 317 318 317 319 320 318 319 320 322 322 323 323 322 323 321 323 323 323 323 323 322 322 322 323 324 324 324
319 317 313 313 316 318 319 319 319 318 318 317 316 315 316 321 323 322 317 317 318 318 319 318 320 320 320 321 323 322 322 321 322 323 322 323 322 322 321 322 322 324 325 325 325
318 319 315 312 314 317 318 318 318 318 317 316 316 315 319 323 322 319 317 318 318 318 320 320 320 320 320 321 322 321 321 322 322 322 322 322 322 322 321 322 323 325 325 326 326
320 318 319 314 312 315 317 317 317 317 317 316 315 314 322 324 319 319 318 317 318 320 321 321 323 322 323 322 322 325 324 324 323 323 322 321 322 321 323 324 325 326 326 326 327
321 319 317 318 313 312 316 317 317 317 316 315 314 318 321 322 319 320 317 318 320 320 321 322 322 322 323 323 324 324 324 324 324 323 323 322 323 323 324 326 326 327 327 327 327
323 321 318 318 317 313 314 316 317 317 316 315 315 319 322 319 319 320 319 318 319 318 317 321 321 322 323 323 324 324 325 327 325 323 324 323 325 326 326 327 327 327 327 327 327
320 323 320 318 319 314 314 316 317 317 315 315 317 320 322 318 318 318 318 318 317 318 317 318 321 323 324 324 327 327 327 327 326 324 325 326 328 328 327 327 327 328 328 327 327
317 320 322 319 319 317 315 317 317 316 317 318 318 322 319 318 317 317 317 317 317 319 318 319 322 325 325 326 327 326 328 328 327 327 327 328 328 328 328 328 328 328 327 327 328
315 318 320 321 319 318 317 317 319 319 318 319 320 318 316 316 319 319 319 317 321 320 321 322 325 328 327 328 327 328 328 327 327 327 327 328 329 329 329 328 328 328 327 328 328
314 316 318 321 319 319 317 318 318 318 322 319 318 318 317 316 319 323 321 323 324 323 323 326 327 326 327 327 328 328 328 328 328 328 328 329 329 329 328 328 327 327 328 327 329
313 315 318 319 319 318 318 317 317 317 321 322 319 319 318 317 319 322 325 325 325 325 326 328 327 327 327 327 328 329 329 330 330 329 328 329 330 329 328 327 326 327 327 328 330
313 313 316 317 317 318 318 318 318 317 318 316 320 320 318 317 318 318 323 325 326 327 327 328 327 327 328 328 328 331 329 329 329 330 332 329 332 329 329 327 327 328 329 329 330
307 314 314 317 318 318 318 318 317 317 319 314 317 316 318 317 315 318 322 324 325 325 327 328 327 328 329 328 328 330 329 329 329 330 331 331 331 329 329 328 327 328 329 329 330
307 312 314 316 318 318 318 317 311 317 318 319 318 317 318 318 315 317 323 324 322 324 326 327 325 326 327 326 327 327 328 328 329 331 335 331 330 328 328 328 326 327 328 328 329
308 310 315 315 318 318 316 312 312 318 318 323 320 319 317 319 318 318 324 326 324 325 327 326 325 325 326 328 327 328 330 334 333 333 332 328 329 329 328 326 326 326 326 327 328
307 308 311 314 317 315 314 313 318 316 320 323 323 322 321 319 319 319 322 326 323 322 325 328 330 326 325 327 329 329 330 331 333 332 329 328 329 327 327 325 325 324 325 325 327
306 307 308 315 314 314 314 316 319 319 317 324 324 325 324 322 321 320 323 324 323 322 325 328 328 326 325 325 327 329 332 328 330 330 334 331 328 327 326 325 324 323 323 324 325
306 308 306 312 315 315 316 316 318 319 318 323 328 326 327 325 325 321 325 324 324 323 323 326 329 326 326 325 325 327 327 332 334 335 336 328 327 327 327 327 323 323 323 323 323
305 308 306 310 315 316 317 315 317 318 319 325 326 327 327 327 326 325 328 326 325 324 324 325 328 328 327 326 327 326 328 328 329 330 332 331 329 329 328 327 325 324 322 322 322
306 306 307 312 318 313 316 312 316 319 319 323 323 325 328 328 328 327 329 327 325 324 326 326 329 330 328 325 325 326 327 328 335 333 334 336 336 325 326 327 325 324 322 322 321
306 306 305 312 317 310 308 314 317 320 320 321 324 324 324 329 329 329 327 326 325 326 326 326 330 332 328 324 325 328 327 327 327 330 334 340 333 326 325 326 325 324 322 321 321
306 306 307 308 311 314 310 315 318 319 320 320 323 323 325 328 328 329 329 326 324 326 324 325 328 330 330 327 325 327 327 328 328 335 332 334 330 328 325 324 324 324 322 321 320
304 306 308 307 307 313 314 316 319 321 320 321 324 324 326 330 329 330 328 325 324 325 325 327 331 329 327 325 324 325 325 327 328 329 332 330 328 326 326 326 325 324 323 321 319
302 304 306 310 311 308 313 318 320 321 321 322 323 324 327 327 327 328 328 324 327 326 327 327 331 330 331 327 326 326 325 324 324 326 327 327 327 325 325 325 324 324 322 320 318
303 303 306 307 312 310 311 317 319 321 320 322 323 324 325 324 323 325 323 323 322 324 328 328 329 328 328 325 327 330 327 324 324 323 324 329 326 324 324 324 324 323 322 320 318

GFSSW_925_thetae_180.txt.gz
Theta_e
319 316 320 321 320 321 321 321 321 320 320 319 318 317 317 317 318 321 323 321 320 316 317 322 323 321 321 321 323 322 320 322 323 324 326 325 325 325 324 324 324 325 332 334 333
320 318 315 319 320 320 320 320 320 320 320 319 318 317 317 316 318 323 321 319 316 316 323 320 321 321 321 322 323 321 321 323 323 324 325 324 323 323 323 324 324 324 327 331 331
318 319 316 314 318 320 320 320 320 320 319 318 317 317 316 316 323 324 319 317 316 317 322 320 320 320 321 323 323 323 322 323 323 323 323 323 323 323 323 322 323 323 325 325 325
320 318 319 315 314 318 319 319 320 319 319 318 317 316 316 318 326 322 317 317 317 318 320 320 320 321 320 321 322 322 322 322 322 323 322 322 323 322 322 322 322 323 325 325 326
321 320 318 318 314 315 318 319 319 319 318 317 316 316 318 323 323 318 316 316 317 319 319 321 321 320 320 321 322 323 322 322 323 322 323 322 322 322 322 322 322 324 325 326 327
323 321 319 319 316 313 316 318 319 318 318 317 316 315 319 324 322 321 319 319 318 319 321 321 322 323 324 323 323 324 325 324 323 323 323 323 322 322 323 323 323 325 327 327 327
320 322 321 319 319 314 314 318 318 318 317 316 316 317 320 322 321 321 319 318 319 321 322 323 323 323 324 323 323 324 324 324 324 323 323 323 323 323 323 324 326 327 327 327 327
317 320 322 320 319 317 313 316 318 318 317 316 315 318 322 320 320 321 320 318 320 319 319 321 322 323 324 324 324 324 324 325 325 324 324 323 325 326 325 325 327 327 328 328 327
315 316 321 322 320 319 314 316 318 317 317 316 317 319 321 320 320 320 321 320 318 319 318 317 320 322 323 323 325 325 326 326 326 325 325 325 327 327 326 328 328 328 328 328 328
313 315 316 322 321 319 316 317 318 317 316 317 318 322 321 321 320 320 319 319 319 319 319 318 320 323 324 326 324 325 328 327 325 326 326 327 327 327 328 328 329 328 329 328 328
311 313 315 318 321 320 317 318 319 319 317 319 319 320 318 320 318 318 318 318 318 319 320 319 320 322 323 325 325 325 326 328 328 326 327 329 328 328 329 329 329 329 328 328 329
307 312 314 315 319 320 317 317 316 317 319 318 318 319 319 318 319 319 319 319 319 320 321 321 323 321 323 325 326 327 328 329 327 326 327 328 329 328 328 329 329 329 329 329 329
307 310 313 315 316 319 318 317 315 316 320 321 319 320 319 318 319 319 321 319 319 322 322 321 323 323 324 325 328 328 329 329 328 328 329 329 330 329 329 328 328 328 328 328 329
306 309 312 315 316 317 318 317 316 316 321 318 322 320 320 319 318 318 322 320 322 324 322 321 321 324 326 326 328 330 327 328 329 330 331 329 333 330 330 329 328 328 328 329 332
307 306 310 315 315 318 318 318 318 319 324 316 320 319 318 319 316 317 322 324 325 325 324 324 324 326 329 328 327 329 329 330 330 331 332 330 331 330 329 329 328 328 329 330 332
307 305 307 312 314 318 318 318 317 319 322 319 318 319 319 319 317 316 320 324 324 325 325 326 326 326 328 327 327 328 329 329 330 331 336 331 332 331 330 330 328 329 330 330 331
306 306 306 312 315 314 318 317 317 320 317 319 319 319 320 320 319 317 319 325 327 326 328 325 326 326 327 328 327 328 331 335 334 335 335 329 330 331 328 328 329 329 330 329 330
303 305 307 312 313 314 316 319 320 318 318 320 319 318 319 319 320 319 320 325 326 324 324 327 328 327 326 327 329 330 331 335 333 336 332 328 330 328 329 327 328 328 329 328 330
303 305 308 310 314 314 317 317 318 320 317 321 321 321 320 318 320 319 319 323 325 324 323 326 325 324 325 325 328 330 332 329 333 333 337 331 329 328 329 328 328 327 327 327 329
304 306 308 309 313 316 320 315 318 317 316 318 327 324 324 320 319 321 318 321 324 324 322 323 326 324 325 326 326 329 329 334 334 338 337 331 330 330 330 327 326 326 327 326 327
305 306 306 306 309 316 317 314 316 317 317 317 327 327 326 323 321 321 318 319 323 324 322 323 327 328 328 328 328 328 329 331 332 333 334 333 331 331 330 327 326 325 325 325 325
307 306 305 305 306 312 311 311 315 317 318 320 322 326 326 326 325 325 322 321 322 323 326 324 327 330 329 327 327 328 329 331 334 334 333 334 334 330 330 328 327 324 324 324 324
306 307 307 305 309 309 308 314 317 318 319 322 322 325 326 327 329 326 327 322 325 325 327 325 329 335 333 331 328 328 328 328 330 330 334 337 332 328 328 328 327 326 324 323 323
305 306 306 308 306 309 310 314 318 317 319 321 322 324 326 329 328 329 328 327 327 327 326 325 330 334 337 332 329 330 328 327 329 332 332 332 332 330 327 327 327 326 325 323 323
305 306 307 307 305 306 310 313 317 319 319 321 324 325 326 328 329 330 329 328 328 326 327 327 331 331 331 328 327 328 327 328 329 330 332 330 330 329 329 327 326 326 325 324 322
302 305 307 308 307 307 306 313 317 319 320 322 323 324 325 327 327 328 327 330 330 327 328 328 331 331 332 329 326 327 326 327 328 328 328 329 329 327 327 326 327 325 325 325 323
304 304 306 308 308 309 308 309 316 318 319 321 322 322 324 324 325 325 325 325 326 329 328 328 330 331 335 330 330 333 330 326 326 326 328 329 329 327 326 326 325 325 325 325 324

GFSSW_925_thetae_183.txt.gz
Theta_e
319 318 319 317 323 323 322 321 320 320 320 320 319 318 317 317 317 318 320 322 321 319 315 321 322 322 321 317 317 319 313 313 318 322 323 323 322 323 322 322 323 327 332 334 341
322 320 319 319 317 321 321 321 321 320 320 320 319 318 317 316 316 319 319 321 319 316 316 322 318 318 315 317 316 315 312 317 321 321 321 321 321 321 321 322 322 325 330 332 336
323 322 320 319 317 316 320 321 321 320 320 319 319 318 317 316 320 322 320 320 317 316 318 321 320 318 317 316 316 317 315 319 321 321 319 320 321 321 320 321 321 322 323 326 328
319 323 322 320 318 315 315 320 321 320 320 319 318 317 316 316 322 320 318 317 316 317 319 320 318 318 318 317 317 320 320 320 320 321 321 320 319 320 319 320 320 320 321 322 322
318 321 323 321 319 318 313 316 320 320 319 319 318 316 316 320 321 320 316 316 316 318 319 317 319 318 317 317 317 321 321 319 321 321 321 320 320 320 320 319 319 321 323 323 322
315 318 321 323 320 319 316 313 318 320 319 318 317 316 317 321 318 321 318 319 318 318 319 319 319 321 321 321 320 323 322 322 321 320 319 321 320 320 319 318 319 322 323 322 325
312 315 317 321 322 320 319 313 315 319 319 318 317 316 318 319 319 320 320 319 318 318 319 322 322 320 320 322 323 322 322 320 320 320 320 321 321 320 319 320 321 321 323 323 325
309 313 315 316 322 321 319 316 314 318 318 317 316 316 319 317 317 318 320 320 319 320 318 318 321 320 322 321 322 324 321 321 320 320 320 320 322 321 319 320 322 322 322 323 323
305 310 314 315 319 322 319 318 315 318 318 317 316 317 319 318 318 320 320 320 319 319 318 317 318 320 321 321 321 322 321 322 322 321 321 321 324 324 320 322 322 324 323 323 323
304 307 312 314 315 321 320 318 318 318 317 317 317 319 318 320 320 319 320 320 318 317 318 317 315 319 319 319 321 322 323 323 322 321 321 321 323 323 322 323 324 321 322 322 322
303 305 309 313 314 319 320 318 317 317 317 317 318 319 319 318 318 320 320 319 319 317 317 315 315 317 319 321 323 323 322 321 323 325 325 322 322 324 325 324 322 322 323 322 330
304 305 309 312 314 314 319 317 314 315 318 317 317 317 316 317 318 317 319 318 318 317 317 317 317 316 319 320 322 322 322 322 324 325 324 322 323 323 325 324 323 322 323 322 332
305 306 306 310 313 314 318 317 315 314 318 319 317 317 318 318 320 318 316 317 318 318 318 319 319 318 319 319 322 323 324 326 327 325 325 327 326 327 325 324 324 323 323 323 332
305 306 306 307 313 313 316 317 315 314 320 319 320 318 318 319 320 318 317 317 317 318 317 319 319 319 320 321 322 325 327 327 327 326 328 327 330 326 325 324 325 324 322 327 332
306 306 308 307 312 312 310 313 316 316 322 316 320 318 317 320 317 318 317 318 318 318 318 321 319 319 319 322 322 324 327 329 330 329 329 330 329 326 325 327 324 323 323 329 331
306 306 308 308 311 311 311 312 316 320 322 316 319 321 320 320 318 316 317 319 320 320 322 319 320 318 319 326 324 325 328 328 329 329 332 329 329 326 325 326 325 324 325 329 331
306 306 307 307 311 313 313 317 319 321 318 319 320 320 319 321 320 316 317 322 324 324 326 324 323 321 323 325 326 326 328 333 334 332 333 329 330 328 326 325 325 326 327 330 331
306 305 306 306 306 312 315 321 320 318 318 317 318 320 320 320 320 317 316 324 323 323 324 326 326 323 324 326 327 326 329 332 335 332 328 326 329 326 326 326 325 326 327 328 331
306 306 306 307 305 308 315 315 318 317 317 318 320 322 320 320 320 316 316 323 323 323 322 324 325 322 325 325 326 328 330 327 331 330 326 329 327 326 327 326 326 327 327 328 330
306 305 304 307 305 307 315 315 312 316 316 317 321 320 321 320 320 318 317 317 323 322 321 321 324 322 324 324 325 326 326 331 330 334 333 330 328 327 327 327 327 327 326 327 328
305 305 303 305 307 308 313 312 313 314 316 317 325 322 320 319 319 319 318 317 318 322 322 320 322 324 323 326 326 326 329 330 329 330 330 329 327 324 325 325 326 326 325 326 326
302 303 304 306 309 302 308 313 313 315 315 319 319 324 323 320 319 320 319 317 316 321 323 322 323 324 323 323 323 324 327 328 332 332 329 328 328 326 326 324 324 323 323 321 321
302 304 305 306 308 307 304 310 315 316 317 320 318 321 324 326 323 319 319 318 318 319 323 322 324 326 325 324 324 326 326 326 327 328 331 332 330 325 325 323 322 320 321 321 320
302 304 305 305 305 308 307 310 316 316 318 318 320 320 324 327 327 329 322 320 318 320 322 322 323 322 322 323 326 328 327 326 327 330 330 330 328 326 326 325 323 320 320 320 320
303 304 302 305 304 305 308 311 315 318 317 319 321 321 324 325 327 329 328 325 324 320 322 323 325 323 321 322 325 325 327 327 328 327 329 328 328 326 325 323 323 321 320 320 320
301 303 304 303 303 305 306 310 314 315 317 319 321 322 322 325 324 326 327 326 326 325 325 327 329 326 328 325 329 330 326 326 327 326 326 326 326 324 324 322 322 322 321 321 320
303 303 302 304 305 306 306 307 310 314 315 316 319 320 322 323 322 323 324 324 326 328 328 328 330 329 331 328 331 332 328 328 327 325 325 327 325 323 324 324 323 323 323 322 322